Flag for Canada Weather past 2 weeks in Welland, Ontario, Canada

Now
40 °F

Chilly.


Feels Like: 32 °F
Forecast: 39 / 50 °F
Wind: 13 mph from North

Location: Port Colborne Airport

Current Time: Apr 27, 2015 at 10:10:21 AM

Latest Report: Apr 27, 2015 at 9:00 AM


Visibility: N/A

Pressure: 29.85 "Hg

Humidity: 85%

Dew point: 36 °F

Location of WellandLocation

Historic Weather in Welland — Graph

°F

Welland temperature yesterday

Maximum temperature yesterday: 45 °F (at 10:00 PM)
Minimum temperature yesterday: 35 °F (at 5:00 AM)
Average temperature yesterday: 40 °F

Past Weeks' High & Low Weather Summary

 TemperatureHumidityPressure
High63 °F (Apr 19, 4:00 PM)100% (Apr 17, 7:00 PM)30.41 "Hg (Apr 17, 7:00 PM)
Low31 °F (Apr 23, 3:00 AM)13% (Apr 18, 4:00 PM)29.36 "Hg (Apr 20, 4:00 PM)
Average42 °F67%29.97 "Hg
* Reported Apr 12 8:00 AM — Apr 27 8:00 AM, Welland, Weather by CustomWeather, © 2015

Note: Actual official high and low records may vary slightly from our data, if they occured in-between our weather recording intervals... More about our weather records

Advertising

Welland weather history for previous 24 hours

 ConditionsComfort  
Time TempWeatherWind HumidityBarometerVisibility
8:00 AM
Mon, Apr 27
40 °FQuite cool.8 mph87%29.84 "HgN/A
7:00 AM41 °FQuite cool.8 mph87%29.83 "HgN/A
6:00 AM42 °FQuite cool.7 mph80%29.82 "HgN/A
5:00 AM42 °FQuite cool.9 mph72%29.80 "HgN/A
4:00 AM42 °FQuite cool.9 mph71%29.80 "HgN/A
3:00 AM43 °FQuite cool.9 mph69%29.80 "HgN/A
12:00 AM44 °FQuite cool.7 mph64%29.83 "HgN/A
11:00 PM
Sun, Apr 26
45 °FCool.9 mph63%29.83 "HgN/A
10:00 PM45 °FCool.5 mph62%29.83 "HgN/A
9:00 PM41 °FQuite cool.5 mph82%29.84 "HgN/A
8:00 PM40 °FQuite cool.12 mph81%29.83 "HgN/A
7:00 PM41 °FQuite cool.14 mph77%29.83 "HgN/A
6:00 PM41 °FQuite cool.14 mph78%29.84 "HgN/A
5:00 PM40 °FChilly.12 mph78%29.84 "HgN/A
4:00 PM40 °FChilly.9 mph80%29.84 "HgN/A
3:00 PM39 °FChilly.14 mph78%29.83 "HgN/A
2:00 PM40 °FChilly.15 mph73%29.83 "HgN/A
1:00 PM40 °FQuite cool.12 mph71%29.84 "HgN/A
12:00 PM38 °FChilly.10 mph78%29.85 "HgN/A
11:00 AM45 °FQuite cool.6 mph58%29.86 "HgN/A
10:00 AM42 °FQuite cool.9 mph64%29.86 "HgN/A
Weather by CustomWeather, © 2015

See weather overviewHow to use our weather pages